DL8FX-6 Weather Reports


Display with metric or nautical units.
time (UTC)temp
F
wind
direction
speed
MPH
gust
MPH
rain 1hr
in
rain 24hr
in
rain mn
in
humidity
%
barometer
mb
20260510105032 71 0.0 2.0 0.00 0.00 0.00 41 1011.0
20260510104028 73 0.0 0.0 0.00 0.00 0.00 41 1011.0
20260510103023 72 0.0 1.0 0.00 0.00 0.00 42 1011.2
20260510102039 71 0.0 0.0 0.00 0.00 0.00 43 1011.3
20260510101015 69 0.0 0.0 0.00 0.00 0.00 46 1011.4
20260510100111 69 0.0 1.0 0.00 0.00 0.00 45 1011.4
20260510095108 70 0.0 2.0 0.00 0.00 0.00 43 1011.4
20260510094104 70 0.0 0.0 0.00 0.00 0.00 44 1011.5
20260510093059 69 0.0 0.0 0.00 0.00 0.00 47 1011.7
20260510092055 68 0.0 0.0 0.00 0.00 0.00 47 1011.7
20260510091051 68 0.0 0.0 0.00 0.00 0.00 46 1011.8
20260510090047 68 0.0 0.0 0.00 0.00 0.00 47 1012.0
20260510085043 69 0.0 0.0 0.00 0.00 0.00 47 1012.1
20260510084039 68 0.0 1.0 0.00 0.00 0.00 48 1012.1
20260510083035 68 0.0 0.0 0.00 0.00 0.00 46 1012.0
20260510082030 69 0.0 0.0 0.00 0.00 0.00 46 1012.2
20260510081026 68 0.0 0.0 0.00 0.00 0.00 48 1012.4
20260510080022 68 0.0 0.0 0.00 0.00 0.00 49 1012.5
20260510075038 66 0.0 0.0 0.00 0.00 0.00 53 1012.7
20260510074114 63 0.0 0.0 0.00 0.00 0.00 56 1012.7
20260510073110 63 0.0 0.0 0.00 0.00 0.00 55 1012.8
20260510072105 64 0.0 0.0 0.00 0.00 0.00 54 1012.9
20260510071101 64 0.0 0.0 0.00 0.00 0.00 57 1012.9
20260510070057 62 0.0 1.0 0.00 0.00 0.00 58 1013.0
20260510065154 64 0.0 1.0 0.00 0.00 0.00 54 1013.0
20260510064050 63 0.0 0.0 0.00 0.00 0.00 60 1013.0
20260510063046 62 156 0.0 4.0 0.00 0.00 0.00 61 1013.0
20260510062042 60 0.0 0.0 0.00 0.00 0.00 61 1013.0
20260510061038 61 0.0 2.0 0.00 0.00 0.00 62 1013.2
20260510060034 60 0.0 2.0 0.00 0.00 0.00 62 1013.3
20260510055030 59 0.0 0.0 0.00 0.00 0.00 62 1013.3
20260510054026 58 0.0 0.0 0.00 0.00 0.00 64 1013.4
20260510053022 58 0.0 0.0 0.00 0.00 0.00 69 1013.4
20260510052018 57 0.0 0.0 0.00 0.00 0.00 78 1013.4
20260510051114 55 0.0 0.0 0.00 0.00 0.00 88 1013.2
20260510050110 52 0.0 2.0 0.00 0.00 0.00 96 1013.2
20260510045106 49 0.0 0.0 0.00 0.00 0.00 96 1013.4
20260510044102 44 0.0 0.0 0.00 0.00 0.00 98 1013.5
20260510043058 42 0.0 0.0 0.00 0.00 0.00 98 1013.7
20260510042054 42 0.0 0.0 0.00 0.00 0.00 98 1013.6
20260510041050 42 0.0 0.0 0.00 0.00 0.00 98 1013.8
20260510040106 42 0.0 0.0 0.00 0.00 0.00 97 1013.8
20260510035041 42 0.0 0.0 0.00 0.00 0.00 97 1013.7
20260510034058 42 0.0 0.0 0.00 0.00 0.00 97 1013.8
20260510033034 42 0.0 0.0 0.00 0.00 0.00 97 1014.2
20260510032030 42 0.0 0.0 0.00 0.00 0.00 97 1014.2
20260510031027 42 0.0 0.0 0.00 0.00 0.00 97 1014.1
20260510030023 42 0.0 0.0 0.00 0.00 0.00 97 1014.1
20260510025019 42 0.0 0.0 0.00 0.00 0.00 97 1014.2
20260510024015 43 0.0 0.0 0.00 0.00 0.00 97 1014.1
20260510023112 42 0.0 0.0 0.00 0.00 0.00 97 1014.1
20260510022108 43 0.0 0.0 0.00 0.00 0.00 97 1014.1
20260510021103 42 0.0 0.0 0.00 0.00 0.00 96 1014.5
20260510020059 42 0.0 0.0 0.00 0.00 0.00 96 1014.4
20260510015055 42 0.0 0.0 0.00 0.00 0.00 96 1014.5
20260510014051 42 0.0 0.0 0.00 0.00 0.00 96 1014.6
20260510013047 43 0.0 0.0 0.00 0.00 0.00 96 1014.5
20260510012043 42 0.0 0.0 0.00 0.00 0.00 95 1014.8
20260510011040 43 0.0 0.0 0.00 0.00 0.00 95 1015.0
20260510010116 43 0.0 0.0 0.00 0.00 0.00 95 1015.1
20260510005032 43 0.0 0.0 0.00 0.00 0.00 95 1015.2
20260510004028 43 0.0 0.0 0.00 0.00 0.00 95 1015.4
20260510003024 43 0.0 0.0 0.00 0.00 0.00 95 1015.6
20260510002020 43 0.0 0.0 0.00 0.00 0.00 94 1015.7
20260510001017 43 0.0 0.0 0.00 0.00 0.00 94 1015.9
20260510000113 43 0.0 0.0 0.00 0.00 0.00 94 1016.0
20260509235109 44 0.0 0.0 0.00 0.00 0.00 94 1016.0
20260509234105 44 0.0 0.0 0.00 0.00 0.00 94 1016.1
20260509233101 44 0.0 0.0 0.00 0.00 0.00 94 1016.3
20260509232057 44 0.0 0.0 0.00 0.00 0.00 94 1016.5
20260509231053 44 0.0 0.0 0.00 0.00 0.00 93 1016.5
20260509230049 45 0.0 0.0 0.00 0.00 0.00 93 1016.5
20260509225045 45 0.0 0.0 0.00 0.00 0.00 93 1016.6
20260509224041 45 0.0 0.0 0.00 0.00 0.00 93 1016.6
20260509223037 45 0.0 0.0 0.00 0.00 0.00 93 1016.6
20260509222036 45 0.0 0.0 0.00 0.00 0.00 92 1016.7
20260509221030 46 0.0 0.0 0.00 0.00 0.00 88 1016.8
20260509220025 46 0.0 0.0 0.00 0.00 0.00 88 1016.8
20260509215021 46 0.0 0.0 0.00 0.00 0.00 87 1016.9
20260509214017 46 0.0 0.0 0.00 0.00 0.00 87 1016.9
20260509213113 46 0.0 0.0 0.00 0.00 0.00 86 1016.9
20260509212130 47 0.0 0.0 0.00 0.00 0.00 86 1016.8
20260509211106 47 0.0 0.0 0.00 0.00 0.00 85 1016.7
20260509205059 48 0.0 0.0 0.00 0.00 0.00 84 1016.9
20260509204055 48 0.0 0.0 0.00 0.00 0.00 83 1017.0
20260509203051 48 0.0 0.0 0.00 0.00 0.00 83 1016.9
20260509202047 49 0.0 0.0 0.00 0.00 0.00 82 1016.9
20260509201103 49 0.0 0.0 0.00 0.00 0.00 81 1016.9
20260509200039 50 0.0 0.0 0.00 0.00 0.00 80 1016.8
20260509195035 50 0.0 0.0 0.00 0.00 0.00 80 1016.9
20260509194031 51 0.0 0.0 0.00 0.00 0.00 80 1016.8
20260509193047 51 0.0 0.0 0.00 0.00 0.00 77 1016.8
20260509192043 52 0.0 0.0 0.00 0.00 0.00 76 1016.7
20260509191019 53 0.0 0.0 0.00 0.00 0.00 74 1016.6
20260509190115 54 0.0 0.0 0.00 0.00 0.00 73 1016.6
20260509185110 55 0.0 0.0 0.00 0.00 0.00 70 1016.5
20260509184106 56 0.0 0.0 0.00 0.00 0.00 69 1016.5
20260509183122 57 0.0 0.0 0.00 0.00 0.00 67 1016.5
20260509182058 58 0.0 0.0 0.00 0.00 0.00 65 1016.5
20260509181055 59 0.0 0.0 0.00 0.00 0.00 60 1016.6
20260509180110 60 0.0 0.0 0.00 0.00 0.00 60 1016.5
20260509175047 62 0.0 0.0 0.00 0.00 0.00 57 1016.5
20260509174043 64 0.0 0.0 0.00 0.00 0.00 49 1016.4
20260509173100 64 0.0 0.0 0.00 0.00 0.00 49 1016.5
20260509172036 63 0.0 0.0 0.00 0.00 0.00 53 1016.4
20260509171031 62 0.0 0.0 0.00 0.00 0.00 52 1016.6
20260509170028 62 0.0 0.0 0.00 0.00 0.00 52 1016.7
20260509165024 62 0.0 0.0 0.00 0.00 0.00 51 1016.7
20260509164020 62 0.0 0.0 0.00 0.00 0.00 51 1016.7
20260509163016 62 0.0 0.0 0.00 0.00 0.00 51 1016.8
20260509162112 63 0.0 0.0 0.00 0.00 0.00 50 1017.1
20260509161108 63 0.0 0.0 0.00 0.00 0.00 50 1017.0
20260509160105 63 0.0 0.0 0.00 0.00 0.00 50 1017.2
20260509155101 63 0.0 0.0 0.00 0.00 0.00 51 1017.3
20260509154057 63 0.0 0.0 0.00 0.00 0.00 51 1017.4
20260509153113 64 0.0 1.0 0.00 0.00 0.00 48 1017.6
20260509152048 64 0.0 0.0 0.00 0.00 0.00 48 1017.7
20260509151104 64 0.0 0.0 0.00 0.00 0.00 48 1017.6
20260509150041 64 0.0 0.0 0.00 0.00 0.00 52 1017.7
20260509145037 64 0.0 1.0 0.00 0.00 0.00 45 1017.8
20260509144053 64 0.0 0.0 0.00 0.00 0.00 50 1017.7
20260509143028 63 0.0 0.0 0.00 0.00 0.00 53 1017.8
20260509142024 62 0.0 0.0 0.00 0.00 0.00 52 1017.9
20260509141019 62 0.0 1.0 0.00 0.00 0.00 54 1018.0
20260509140115 62 0.0 1.0 0.00 0.00 0.00 52 1018.0
20260509135111 62 0.0 0.0 0.00 0.00 0.00 51 1018.1
20260509134107 63 0.0 0.0 0.00 0.00 0.00 49 1018.1
20260509133103 64 0.0 0.0 0.00 0.00 0.00 46 1018.2
20260509132119 65 0.0 0.0 0.00 0.00 0.00 43 1018.3
20260509131055 66 0.0 0.0 0.00 0.00 0.00 44 1018.3
20260509130051 64 0.0 0.0 0.00 0.00 0.00 43 1018.5
20260509125047 64 0.0 1.0 0.00 0.00 0.00 43 1018.6
20260509124042 64 0.0 0.0 0.00 0.00 0.00 43 1018.6
20260509123038 64 0.0 0.0 0.00 0.00 0.00 42 1018.7
20260509122054 66 0.0 0.0 0.00 0.00 0.00 42 1018.8
20260509121030 65 0.0 3.0 0.00 0.00 0.00 45 1018.8
20260509120026 64 0.0 3.0 0.00 0.00 0.00 47 1018.8
20260509115022 65 0.0 0.0 0.00 0.00 0.00 46 1018.8
20260509114018 65 0.0 1.0 0.00 0.00 0.00 48 1018.8
20260509113115 64 0.0 0.0 0.00 0.00 0.00 47 1018.9
20260509112111 65 0.0 0.0 0.00 0.00 0.00 41 1018.9
20260509111107 67 90 0.0 4.0 0.00 0.00 0.00 40 1019.0
20260509110103 68 0.0 1.0 0.00 0.00 0.00 40 1019.1